GW5408 Weather Reports


time (UTC)temp
C
wind
direction
speed
KPH
gust
KPH
rain 1hr
cm
rain 24hr
cm
rain mn
cm
humidity
%
barometer
mb
20260503072022 11 223 0.0 1.6 0.00 0.00 0.00 65 1015.0
20260503071557 11 221 0.0 1.6 0.00 0.00 0.00 66 1015.0
20260503071022 11 0 0.0 1.6 0.00 0.00 0.00 66 1015.0
20260503070522 11 0 0.0 1.6 0.00 0.00 0.00 64 1015.0
20260503055021 12 190 0.0 1.6 0.00 0.00 0.00 59 1014.7
20260503054553 12 0 0.0 3.2 0.00 0.00 0.00 61 1014.6
20260503054022 12 0 0.0 3.2 0.00 0.00 0.00 61 1014.6
20260503053522 12 232 0.0 3.2 0.00 0.00 0.00 61 1014.7
20260503053039 12 230 0.0 1.6 0.00 0.00 0.00 57 1014.7
20260503052522 12 230 0.0 1.6 0.00 0.00 0.00 60 1014.6
20260503052022 13 0 0.0 1.6 0.00 0.00 0.00 57 1014.6
20260503051539 13 230 1.6 1.6 0.00 0.00 0.00 58 1014.5
20260503051021 13 230 0.0 1.6 0.00 0.00 0.00 61 1014.5
20260503050522 13 230 0.0 1.6 0.00 0.00 0.00 55 1014.4
20260503050039 13 0 0.0 1.6 0.00 0.00 0.00 59 1014.5
20260503045522 13 230 1.6 1.6 0.00 0.00 0.00 55 1014.5
20260503045021 13 0 0.0 1.6 0.00 0.00 0.00 57 1014.4
20260503044549 13 0 0.0 1.6 0.00 0.00 0.00 55 1014.5
20260503044026 13 230 1.6 1.6 0.00 0.00 0.00 54 1014.6
20260503043522 13 230 1.6 3.2 0.00 0.00 0.00 55 1014.5
20260503043046 13 230 1.6 3.2 0.00 0.00 0.00 54 1014.5
20260503042522 13 230 3.2 3.2 0.00 0.00 0.00 54 1014.5
20260503042022 13 230 1.6 3.2 0.00 0.00 0.00 55 1014.5
20260503041539 14 228 1.6 3.2 0.00 0.00 0.00 50 1014.3
20260503041022 14 227 1.6 3.2 0.00 0.00 0.00 53 1014.3
20260503040523 14 226 1.6 3.2 0.00 0.00 0.00 54 1014.3
20260503040041 14 218 0.0 1.6 0.00 0.00 0.00 58 1014.3
20260503035522 14 218 0.0 1.6 0.00 0.00 0.00 55 1014.3
20260503035021 15 0 0.0 1.6 0.00 0.00 0.00 57 1014.2
20260503034541 15 218 0.0 1.6 0.00 0.00 0.00 54 1014.1
20260503034022 15 218 1.6 1.6 0.00 0.00 0.00 55 1014.1
20260503033524 15 217 1.6 1.6 0.00 0.00 0.00 57 1014.0
20260503033040 15 217 0.0 1.6 0.00 0.00 0.00 55 1013.9
20260503032521 15 217 0.0 1.6 0.00 0.00 0.00 54 1013.9
20260503032025 15 217 0.0 1.6 0.00 0.00 0.00 56 1013.9
20260503031539 15 217 0.0 1.6 0.00 0.00 0.00 54 1013.8
20260503031022 16 217 0.0 1.6 0.00 0.00 0.00 55 1013.9
20260503030522 16 217 0.0 1.6 0.00 0.00 0.00 55 1013.8
20260503030038 16 217 1.6 1.6 0.00 0.00 0.00 55 1013.8
20260503025521 16 217 1.6 1.6 0.00 0.00 0.00 54 1013.7
20260503025022 17 216 1.6 1.6 0.00 0.00 0.00 51 1013.7
20260503024536 17 216 1.6 1.6 0.00 0.00 0.00 50 1013.7
20260503024021 17 216 1.6 1.6 0.00 0.00 0.00 52 1013.7
20260503023522 17 215 0.0 1.6 0.00 0.00 0.00 50 1013.7
20260503023043 17 214 0.0 1.6 0.00 0.00 0.00 47 1013.7
20260503022521 18 0 0.0 1.6 0.00 0.00 0.00 46 1013.7
20260503022025 18 0 1.6 1.6 0.00 0.00 0.00 46 1013.7
20260503021545 18 214 1.6 1.6 0.00 0.00 0.00 45 1013.7
20260503021021 18 213 0.0 1.6 0.00 0.00 0.00 45 1013.7
20260503020521 18 0 0.0 1.6 0.00 0.00 0.00 43 1013.6
20260503020043 18 213 0.0 1.6 0.00 0.00 0.00 43 1013.7
20260503015521 19 213 1.6 1.6 0.00 0.00 0.00 42 1013.7
20260503015022 19 213 0.0 1.6 0.00 0.00 0.00 41 1013.6
20260503014538 20 0 0.0 1.6 0.00 0.00 0.00 40 1013.6
20260503014021 20 213 0.0 1.6 0.00 0.00 0.00 39 1013.6
20260503013522 20 0 0.0 0.0 0.00 0.00 0.00 38 1013.6
20260503013038 20 0 0.0 1.6 0.00 0.00 0.00 38 1013.5
20260503012522 20 0 0.0 1.6 0.00 0.00 0.00 37 1013.5
20260503012021 20 0 0.0 1.6 0.00 0.00 0.00 37 1013.5
20260503011548 20 0 0.0 1.6 0.00 0.00 0.00 37 1013.5
20260503011022 20 0 0.0 1.6 0.00 0.00 0.00 37 1013.6
20260503010521 20 0 0.0 1.6 0.00 0.00 0.00 38 1013.7
20260503010042 20 0 0.0 1.6 0.00 0.00 0.00 38 1013.7
20260503005521 20 0 0.0 1.6 0.00 0.00 0.00 37 1013.8
20260503005021 21 0 0.0 1.6 0.00 0.00 0.00 38 1013.8
20260503004540 21 0 0.0 3.2 0.00 0.00 0.00 38 1013.9
20260503004024 21 0 0.0 3.2 0.00 0.00 0.00 37 1014.0
20260503003521 21 0 0.0 3.2 0.00 0.00 0.00 42 1014.0
20260503003038 21 216 0.0 3.2 0.00 0.00 0.00 45 1014.1
20260503002521 21 216 0.0 1.6 0.00 0.00 0.00 40 1014.1
20260503002022 22 0 0.0 1.6 0.00 0.00 0.00 36 1014.1
20260503001547 22 0 0.0 1.6 0.00 0.00 0.00 33 1014.1
20260503001025 22 0 0.0 1.6 0.00 0.00 0.00 34 1014.0
20260503000526 22 38 0.0 3.2 0.00 0.00 0.00 32 1014.1
20260503000100 23 0 0.0 6.4 0.00 0.00 0.00 31 1014.1
20260502235521 23 38 0.0 6.4 0.00 0.00 0.00 29 1014.0
20260502235022 24 0 1.6 6.4 0.00 0.00 0.00 28 1014.0
20260502234539 24 9 1.6 4.8 0.00 0.00 0.00 27 1014.1
20260502234021 24 224 0.0 3.2 0.00 0.00 0.00 29 1014.1
20260502233520 25 9 0.0 3.2 0.00 0.00 0.00 29 1014.2
20260502233039 25 49 0.0 6.4 0.00 0.00 0.00 29 1014.2
20260502232521 24 23 1.6 6.4 0.00 0.00 0.00 28 1014.2
20260502232021 23 98 0.0 4.8 0.00 0.00 0.00 28 1014.3
20260502231536 23 0 1.6 4.8 0.00 0.00 0.00 31 1014.4
20260502231022 23 311 0.0 4.8 0.00 0.00 0.00 31 1014.5
20260502230522 24 223 0.0 4.8 0.00 0.00 0.00 28 1014.5
20260502230036 24 0 0.0 4.8 0.00 0.00 0.00 32 1014.4
20260502225525 25 358 0.0 4.8 0.00 0.00 0.00 26 1014.5
20260502225021 25 164 1.6 9.7 0.00 0.00 0.00 26 1014.6
20260502224547 25 0 3.2 9.7 0.00 0.00 0.00 30 1014.6
20260502224023 25 260 1.6 8.0 0.00 0.00 0.00 27 1014.6
20260502223521 25 333 1.6 8.0 0.00 0.00 0.00 28 1014.6
20260502223039 25 40 3.2 8.0 0.00 0.00 0.00 27 1014.7
20260502222521 25 43 1.6 6.4 0.00 0.00 0.00 29 1014.7
20260502222022 25 59 1.6 4.8 0.00 0.00 0.00 26 1014.8
20260502221539 25 97 1.6 4.8 0.00 0.00 0.00 27 1014.8
20260502221021 25 87 1.6 6.4 0.00 0.00 0.00 27 1015.0
20260502220521 25 32 3.2 6.4 0.00 0.00 0.00 26 1015.1
20260502220046 25 0 0.0 6.4 0.00 0.00 0.00 27 1015.1
20260502215524 25 97 3.2 6.4 0.00 0.00 0.00 28 1015.1
20260502215026 25 51 1.6 4.8 0.00 0.00 0.00 25 1015.3
20260502214537 25 37 1.6 4.8 0.00 0.00 0.00 26 1015.3
20260502214022 25 88 3.2 4.8 0.00 0.00 0.00 26 1015.3
20260502213521 25 111 1.6 4.8 0.00 0.00 0.00 26 1015.3
20260502213043 25 154 1.6 6.4 0.00 0.00 0.00 25 1015.4
20260502212521 25 95 3.2 6.4 0.00 0.00 0.00 27 1015.6
20260502212020 25 26 1.6 6.4 0.00 0.00 0.00 25 1015.6
20260502211540 25 23 1.6 6.4 0.00 0.00 0.00 24 1015.6
20260502211020 25 273 1.6 6.4 0.00 0.00 0.00 29 1015.7
20260502210520 25 5 1.6 6.4 0.00 0.00 0.00 25 1015.7
20260502210039 25 36 1.6 6.4 0.00 0.00 0.00 28 1015.8
20260502205521 24 167 1.6 6.4 0.00 0.00 0.00 24 1015.7
20260502205024 24 147 1.6 4.8 0.00 0.00 0.00 26 1015.8
20260502204538 25 70 1.6 8.0 0.00 0.00 0.00 24 1015.7
20260502204021 24 223 1.6 8.0 0.00 0.00 0.00 27 1015.9
20260502203522 25 24 1.6 4.8 0.00 0.00 0.00 30 1015.9
20260502203036 24 0 1.6 4.8 0.00 0.00 0.00 28 1016.0
20260502202521 24 140 1.6 4.8 0.00 0.00 0.00 26 1016.0
20260502202021 23 122 1.6 4.8 0.00 0.00 0.00 29 1016.1
20260502201547 23 71 1.6 8.0 0.00 0.00 0.00 28 1016.1
20260502201021 23 69 1.6 8.0 0.00 0.00 0.00 32 1016.0
20260502200525 23 36 1.6 6.4 0.00 0.00 0.00 32 1016.1
20260502200053 22 124 3.2 6.4 0.00 0.00 0.00 35 1016.2
20260502195521 22 219 3.2 6.4 0.00 0.00 0.00 35 1016.2
20260502195020 22 14 3.2 6.4 0.00 0.00 0.00 35 1016.2
20260502194541 22 28 1.6 6.4 0.00 0.00 0.00 34 1016.4
20260502194021 22 55 1.6 6.4 0.00 0.00 0.00 36 1016.5
20260502193521 22 42 0.0 6.4 0.00 0.00 0.00 35 1016.6
20260502193042 22 205 0.0 6.4 0.00 0.00 0.00 36 1016.6
20260502192520 22 0 1.6 6.4 0.00 0.00 0.00 37 1016.8
20260502192022 22 0 1.6 4.8 0.00 0.00 0.00 39 1016.8
20260502191538 21 150 0.0 6.4 0.00 0.00 0.00 41 1016.8
20260502191020 21 156 1.6 6.4 0.00 0.00 0.00 40 1016.8
20260502190521 21 93 0.0 6.4 0.00 0.00 0.00 41 1017.0
20260502190044 21 225 1.6 6.4 0.00 0.00 0.00 39 1017.0
20260502185520 20 74 0.0 6.4 0.00 0.00 0.00 41 1017.1
20260502185021 21 53 0.0 6.4 0.00 0.00 0.00 41 1017.2
20260502184534 21 146 1.6 6.4 0.00 0.00 0.00 42 1017.2
20260502184021 20 94 1.6 6.4 0.00 0.00 0.00 42 1017.2
20260502183521 20 0 1.6 6.4 0.00 0.00 0.00 40 1017.2
20260502183039 20 36 1.6 6.4 0.00 0.00 0.00 41 1017.3
20260502182522 20 14 3.2 6.4 0.00 0.00 0.00 43 1017.3
20260502182024 19 32 1.6 8.0 0.00 0.00 0.00 42 1017.4
20260502181539 19 257 1.6 8.0 0.00 0.00 0.00 41 1017.4
20260502181021 20 76 1.6 4.8 0.00 0.00 0.00 43 1017.5
20260502180521 19 0 1.6 4.8 0.00 0.00 0.00 42 1017.5
20260502164021 17 19 0.0 4.8 0.00 0.00 0.00 46 1017.8
20260502163521 17 45 0.0 4.8 0.00 0.00 0.00 49 1017.8
20260502163045 17 29 1.6 4.8 0.00 0.00 0.00 47 1017.8
20260502162521 16 231 0.0 6.4 0.00 0.00 0.00 50 1017.8
20260502162023 16 0 0.0 6.4 0.00 0.00 0.00 49 1017.8
20260502161539 16 69 0.0 4.8 0.00 0.00 0.00 53 1018.0
20260502161021 15 114 0.0 4.8 0.00 0.00 0.00 51 1018.1
20260502160523 15 36 0.0 4.8 0.00 0.00 0.00 53 1018.2
20260502152021 13 0 0.0 1.6 0.00 0.00 0.00 58 1017.9
20260502151600 13 140 0.0 1.6 0.00 0.00 0.00 59 1017.9
20260502151021 13 198 0.0 1.6 0.00 0.00 0.00 60 1017.9
20260502150521 12 0 0.0 1.6 0.00 0.00 0.00 61 1017.9
20260502140106 8 0 0.0 0.0 0.00 0.00 0.00 80 1017.8
20260502130523 7 0 0.0 1.6 0.00 0.00 0.00 79 1017.5
20260502123521 7 237 0.0 1.6 0.00 0.00 0.00 79 1017.3
20260502123041 7 237 0.0 1.6 0.00 0.00 0.00 78 1017.3
20260502122521 7 237 0.0 0.0 0.00 0.00 0.00 79 1017.2
20260502122021 7 0 0.0 0.0 0.00 0.00 0.00 78 1017.3
20260502121539 7 237 0.0 1.6 0.00 0.00 0.00 78 1017.3
20260502121021 7 237 0.0 1.6 0.00 0.00 0.00 78 1017.2
20260502120522 7 237 0.0 1.6 0.00 0.00 0.00 78 1017.2
20260502115521 7 237 0.0 1.6 0.00 0.00 0.00 77 1017.2
20260502115021 7 237 0.0 1.6 0.00 0.00 0.00 77 1017.3
20260502114539 7 0 0.0 1.6 0.00 0.00 0.00 78 1017.3
20260502114020 7 0 0.0 1.6 0.00 0.00 0.00 77 1017.2
20260502113520 7 0 0.0 1.6 0.00 0.00 0.00 77 1017.2
20260502113048 7 237 0.0 1.6 0.00 0.00 0.00 76 1017.2
20260502112520 7 237 0.0 1.6 0.00 0.00 0.00 76 1017.2
20260502112020 7 237 0.0 1.6 0.00 0.00 0.00 75 1017.2
20260502111535 7 237 0.0 1.6 0.00 0.00 0.00 76 1017.2
20260502111021 7 0 0.0 1.6 0.00 0.00 0.00 76 1017.2
20260502110521 7 237 0.0 1.6 0.00 0.00 0.00 75 1017.2
20260502110038 8 237 0.0 1.6 0.00 0.00 0.00 75 1017.2
20260502105523 8 237 0.0 1.6 0.00 0.00 0.00 75 1017.3
20260502105022 8 0 0.0 1.6 0.00 0.00 0.00 75 1017.2
20260502104540 8 237 1.6 1.6 0.00 0.00 0.00 73 1017.3
20260502104024 8 237 0.0 1.6 0.00 0.00 0.00 73 1017.3
20260502103520 8 237 0.0 1.6 0.00 0.00 0.00 73 1017.2
20260502103039 8 0 0.0 0.0 0.00 0.00 0.00 73 1017.3
20260502102521 8 0 0.0 0.0 0.00 0.00 0.00 73 1017.2
20260502102020 8 0 0.0 0.0 0.00 0.00 0.00 72 1017.2
20260502101538 8 0 0.0 0.0 0.00 0.00 0.00 72 1017.1
20260502101020 8 0 0.0 0.0 0.00 0.00 0.00 73 1017.0
20260502100520 8 0 0.0 0.0 0.00 0.00 0.00 73 1017.0
20260502091020 9 0 0.0 0.0 0.00 0.00 0.00 71 1016.7
20260502090520 9 0 0.0 0.0 0.00 0.00 0.00 70 1016.8
20260502090108 9 0 0.0 1.6 0.00 0.00 0.00 68 1016.8